Location: �coqueneauville
(49.4019°N, 1.2914°W)
Time: 16:10:48
(UTC+00:00)

Daily predictions for brighter satellites

Satellite Brightness Start Highest point End
(mag) Time Altitude Azimuth Time Altitude Azimuth Time Altitude Azimuth
Meteor 1-27 4.4 16:45:05 10° S 16:50:48 89° ESE 16:56:38 10° NNE
Cosmos 1464 Rocket 4.2 16:46:06 10° N 16:52:01 47° ENE 16:57:53 10° SSE
Cosmos 1356 Rocket 3.7 16:48:34 10° S 16:52:38 50° E 16:56:47 10° NNE
SJ-7 4.5 16:49:03 10° SSE 16:53:17 75° ENE 16:57:32 10° N
Cosmos 773 Rocket 4.3 16:48:32 10° SSW 16:53:42 74° WNW 16:58:59 10° NNE
Cosmos 1680 Rocket 4.2 16:49:45 10° SSE 16:54:24 33° ESE 16:59:04 10° NE
Meteor 1-28 Rocket 4.4 16:53:07 10° N 16:56:39 42° WNW 17:00:10 10° SW
Cosmos 2369 Rocket 4.4 16:53:58 10° WNW 16:56:45 14° NNW 16:59:34 10° N
YAOGAN 1 4.1 17:00:28 10° E 17:02:57 15° ENE 17:05:27 10° NNE
ALOS 3.4 16:59:20 10° S 17:03:51 49° W 17:08:24 10° NNW
Cosmos 724 4.2 16:58:14 10° NW 17:04:07 81° NE 17:09:55 10° SE
PSLV R/B 4.1 17:00:14 10° NNE 17:04:25 59° E 17:08:34 10° S
CZ-4 R/B 2.8 17:01:51 10° ESE 17:04:32 17° ENE 17:07:11 10° NNE
Cosmos 1943 Rocket 4.5 17:02:37 10° NW 17:04:45 12° NNW 17:06:55 10° N
SMAP 3.1 17:02:39 10° SSE 17:07:14 61° ENE 17:11:51 10° N
AQUARIUS 4.3 17:03:04 10° SSE 17:07:27 55° ENE 17:11:52 10° N
Cosmos 1980 Rocket 3.0 17:03:40 10° SSE 17:08:37 32° ESE 17:13:36 10° NE
Cosmos 397 4.4 17:04:53 10° NW 17:09:03 88° NE 17:13:16 10° SE
ASTEX 1 3.8 17:04:35 10° N 17:09:34 68° W 17:14:30 10° SSW
ERBS 2.6 17:07:08 10° WSW 17:10:26 60° NNW 17:13:28 12° NE
Cosmos 1862 3.4 17:06:48 10° N 17:10:43 53° ENE 17:14:37 10° SSE
USA 215 3.8 17:04:43 10° ENE 17:10:53 46° N 17:17:03 10° WNW
SL-16 R/B 4.0 17:10:11 10° ESE 17:11:12 10° E 17:12:08 10° E
Cosmos 2297 Rocket 3.7 17:08:29 10° NW 17:13:47 42° WSW 17:19:04 10° S
Cosmos 2227 Rocket 3.5 17:09:26 10° NW 17:14:48 45° WSW 17:20:08 10° S
Lacrosse 4 Rocket 1.3 17:11:32 10° SSW 17:15:36 89° ESE 17:19:40 10° NE
NOSS 2-3 (E) 3.9 17:15:48 10° SSW 17:20:06 59° SE 17:24:52 12° NE
Cosmos 923 Rocket 4.0 17:16:15 10° SSW 17:21:26 70° ESE 17:26:38 10° NNE
SeaSat 1 2.9 17:18:23 10° ESE 17:22:57 39° NE 17:27:32 10° NNW
Cosmos 1624 Rocket 4.1 17:17:41 10° NNW 17:22:59 57° ENE 17:28:13 10° SE
USA 229 DEB 3.9 17:17:02 10° SW 17:23:38 68° NW 17:30:36 10° NE
USA 229 3.9 17:17:09 10° SW 17:23:44 69° NW 17:30:42 10° NE
Cosmos 2056 Rocket 3.5 17:19:23 10° NNW 17:24:28 56° ENE 17:29:34 10° SE
BREEZE-M DEB (TANK) 3.0 17:15:26 10° W 17:25:23 89° S 17:27:57 16° E
NOSS 3-1 (C) 3.7 17:20:06 10° SW 17:25:45 68° NW 17:32:23 10° NE
Cosmos 2263 Rocket 2.6 17:21:58 10° NNW 17:27:10 38° NE 17:32:21 10° ESE
NOSS 3-1 (A) 3.4 17:23:08 10° SW 17:28:47 89° NW 17:35:11 11° NE
NOSS 2-3 (D) 3.8 17:25:31 10° SSW 17:29:52 65° SE 17:34:17 14° NE
YAOGAN 6 3.2 17:31:44 10° SE 17:34:50 30° ENE 17:37:57 10° N
H-2A R/B 2.7 17:31:04 10° SSE 17:34:53 84° WSW 17:38:41 10° NNW
Cosmos 2369 3.8 17:38:49 10° SSW 17:44:30 81° WNW 17:50:15 10° NNE
Cosmos 1697 Rocket 2.7 17:39:36 10° SSW 17:45:16 84° WNW 17:50:58 10° NNE
CENTAUR R/B 3.8 17:40:02 10° NW 17:46:43 34° NNE 17:51:27 20° ENE
COBE Rocket 3.7 17:43:40 10° NNE 17:48:27 75° ESE 17:53:06 10° S
Envisat 2.9 17:44:31 10° SSE 17:49:35 75° ENE 17:54:41 10° N
Cosmos 1656 4.5 17:44:39 10° SW 17:50:00 49° NW 17:55:19 10° NNE
Cosmos 1151 Rocket 3.0 17:47:03 10° S 17:51:23 67° E 17:55:45 10° NNE
Cosmos 1633 Rocket 3.5 17:47:35 10° NNW 17:51:58 64° W 17:56:20 10° S
Cosmos 2034 Rocket 4.0 17:46:44 10° N 17:53:10 90° SW 17:59:33 10° S
Okean-O 2.7 17:50:48 10° S 17:55:14 79° WSW 17:59:42 10° NNW
Cosmos 158 Rocket 4.0 17:52:49 10° S 17:58:00 63° ESE 18:02:06 16° NNE
Cosmos 2278 3.8 17:56:00 10° SSW 18:01:41 80° WNW 18:07:04 12° NNE
Cosmos 2360 4.2 17:57:25 10° SSW 18:03:08 90° ESE 18:08:10 14° NNE
Cosmos 1420 Rocket 4.0 17:58:26 10° NNW 18:03:34 57° ENE 18:08:40 10° SE
FengYun 1-2 T 4.1 18:00:26 10° SSE 18:05:56 79° ENE 18:11:27 10° NNW
Cosmos 1328 Rocket 3.6 18:03:02 10° SSW 18:07:27 79° W 18:11:52 10° N
NOSS 2-3 (C) 4.0 18:03:11 10° SW 18:07:40 68° NW 18:11:06 22° NE
Cosmos 1844 Rocket 3.8 18:03:53 10° N 18:08:17 23° NE 18:08:25 23° NE
Cosmos 1634 Rocket 4.0 18:02:22 10° N 18:08:28 56° ENE 18:14:30 10° SSE
Cosmos 1933 Rocket 3.4 18:05:44 10° N 18:10:06 83° E 18:14:28 10° S
ATLAS 3B R/B 3.6 18:05:01 10° NW 18:10:47 30° NNE 18:12:57 25° NE
Geosat 4.0 18:10:04 26° NE 18:12:47 58° ESE 18:17:43 10° SSW
Cosmos 1452 Rocket 3.6 18:07:37 10° NNW 18:12:51 55° ENE 18:16:36 18° SE
Cosmos 2228 Rocket 3.2 18:09:40 10° S 18:14:01 52° E 18:16:06 28° NNE
COSMO-SKYMED 1 2.5 18:10:49 18° NNE 18:14:04 66° ESE 18:18:22 10° S
Cosmos 1515 Rocket 3.4 18:09:55 10° S 18:14:17 78° E 18:18:15 12° NNE
USA 238 DEB 4.0 18:07:56 10° NW 18:14:55 54° NE 18:18:44 28° ESE
USA 238 4.0 18:08:02 10° NW 18:15:01 54° NE 18:18:47 28° ESE
Cosmos 44 3.7 18:11:06 10° NNW 18:15:05 34° NE 18:15:05 34° NE
Cosmos 1816 Rocket 4.5 18:09:28 10° S 18:15:51 83° E 18:22:15 10° N
USA 116 4.5 18:14:06 25° NE 18:16:49 50° E 18:21:53 10° S
ISS -1.1 18:15:49 10° SSE 18:16:01 11° SSE 18:16:01 11° SSE
NOSS 3-2 (A) 4.1 18:10:36 10° NW 18:17:39 53° NE 18:21:46 29° E
Cosmos 2278 Rocket 4.2 18:15:42 10° N 18:17:39 12° NNE 18:17:39 12° NNE
NOAA 15 4.5 18:14:31 10° SSE 18:19:49 77° ENE 18:25:07 10° NNW
COSMOS 2455 3.9 18:15:50 10° SSE 18:19:46 25° ESE 18:19:46 25° ESE
Cosmos 2227 4.4 18:15:29 10° NNW 18:21:15 75° WSW 18:26:58 10° SSE
APEX 3.3 18:18:40 10° SW 18:21:45 48° WNW 18:22:08 45° NNW
CSL-04 Debris 4.1 18:18:17 10° SSE 18:23:46 79° ENE 18:29:17 10° NNW
Cosmos 2279 Rocket 4.2 18:18:11 10° N 18:24:11 47° ENE 18:30:10 10° SSE
Tsikada Rocket 4.0 18:19:04 10° S 18:25:28 90° WNW 18:31:57 10° N
NOAA 11 4.1 18:20:42 10° SSE 18:26:01 60° ENE 18:31:23 10° N
SL-8 R/B 4.1 18:26:51 10° SW 18:31:29 47° SSE 18:32:04 45° SE
Cosmos 1606 2.5 18:28:06 10° S 18:31:51 87° ESE 18:32:01 81° NNE
Ariane Rocket 3.2 18:32:52 47° ENE 18:32:52 47° ENE 18:37:28 10° N
CSL-04 Rocket 3.5 18:27:54 10° SSE 18:33:15 89° WSW 18:38:35 10° NNW
YAOGAN 1 2.6 18:34:10 10° S 18:38:30 76° WSW 18:42:51 10° NNW
CZ-4 R/B 2.0 18:35:09 10° S 18:39:12 57° W 18:43:10 10° NNW
Cosmos 1939 Rocket 4.1 18:42:28 31° N 18:42:28 31° N 18:44:40 10° N
Meteor 1-26 Rocket 4.2 18:34:39 10° S 18:40:36 72° E 18:45:50 13° NNE
GEOS 3 Rocket 3.5 18:41:59 49° NE 18:43:28 84° SE 18:48:45 10° SW
Cosmos 2360 Rocket 4.4 18:42:12 10° SSE 18:42:21 11° SSE 18:42:21 11° SSE
ERBS 4.4 18:44:31 10° WNW 18:46:28 21° NNW 18:46:28 21° NNW
BREEZE-M DEB (TANK) 4.3 18:45:01 10° W 18:46:16 23° W 18:46:16 23° W
Cosmos 1933 4.2 18:47:27 10° SSW 18:51:24 49° WNW 18:53:15 28° NNW
Cosmos 1980 Rocket 3.0 18:46:53 10° SW 18:52:24 50° NW 18:55:57 22° NNE
USA 215 3.4 18:51:53 47° ENE 18:53:20 57° NNE 18:59:43 10° WNW
SL-16 R/B 2.1 18:48:33 10° SSW 18:54:04 64° ESE 18:54:04 64° ESE
Lacrosse 4 Rocket 3.7 18:52:10 10° WNW 18:54:51 17° NW 18:56:16 14° NNW
Cosmos 2180 Rocket 4.3 18:51:04 10° N 18:57:12 64° ENE 18:57:38 62° E
Cosmos 2322 Rocket 2.4 18:54:22 10° SSW 18:58:55 53° SSE 18:58:55 53° SSE
SeaSat 1 3.7 18:55:51 10° S 19:00:27 39° WSW 19:05:06 10° NW
NOSS 3-2 (C) 4.0 18:57:43 10° NW 19:04:58 63° NE 19:06:15 56° E
Cosmos 2263 Rocket 3.3 19:05:57 10° NW 19:11:10 42° WSW 19:16:22 10° S
H-2A R/B 4.2 19:23:47 16° N 19:23:47 16° N 19:24:48 10° N
CENTAUR R/B 3.0 19:30:55 10° NW 19:38:39 72° NE 19:38:39 72° NE
Cosmos 1844 Rocket 4.1 19:47:17 10° NNW 19:50:05 31° NNW 19:50:05 31° NNW
ATLAS 2AS CENTAUR R/B 4.2 19:53:57 10° SSW 19:57:19 28° SSW 19:57:19 28° SSW
ATLAS 3B R/B 3.4 19:55:48 10° NW 20:00:13 44° NNW 20:00:13 44° NNW
Cosmos 2278 Rocket 4.5 19:58:28 10° NNW 19:59:30 15° NNW 19:59:30 15° NNW
USA 238 DEB 4.4 19:59:04 10° NW 20:05:56 50° WSW 20:06:13 49° SW
USA 238 4.4 19:59:10 10° NW 20:06:03 50° WSW 20:06:16 50° SW
COSMOS 2455 4.3 20:00:08 10° SW 20:02:58 29° SW 20:02:58 29° SW
NOSS 3-2 (A) 4.4 20:01:31 10° NW 20:08:48 55° WSW 20:09:12 55° SW
SL-16 R/B 4.4 20:33:49 10° WSW 20:35:59 20° W 20:35:59 20° W
